User: anonymous   Login
Location: Unspecified
(0.0000°N, 0.0000°E)
Time: 01:36:16
(UTC+00:00)
Language:

Tiros 1 - Orbit

View from above orbital plane
View from above orbital plane
View from above satellite
View from above satellite

Ground track
Ground track

The orbit data is extracted from the following two-line orbital elements,

1    29U 60002B   18112.26991346 -.00000081 +00000-0 +18990-4 0  9993
2    29 048.3800 063.2511 0023498 105.1811 255.1701 14.74239992102393
Epoch (UTC): 22 April 2018 06:28:40
Eccentricity: 0.0023498
inclination: 48.3800°
perigee height: 631 km
apogee height: 664 km
right ascension of ascending node: 63.2511°
argument of perigee: 105.1811°
revolutions per day: 14.74239992
mean anomaly at epoch: 255.1701°
orbit number at epoch: 10239

The dashed part of the orbit path shows where the satellite is in the earth's shadow,  

DLR